DW8016 Weather Reports


time (UTC)temp
C
wind
direction
speed
KPH
gust
KPH
rain 1hr
cm
rain 24hr
cm
rain mn
cm
humidity
%
barometer
mb
20260507021216 19 351 0.0 0.0 0.00 0.79 0.79 78 1008.2
20260507020239 19 351 1.6 8.0 0.00 0.79 0.79 76 1008.0
20260507014201 20 0 0.0 6.4 0.00 0.79 0.79 79 1007.8
20260507013159 20 262 0.0 0.0 0.00 0.79 0.79 81 1008.0
20260507012131 20 262 0.0 0.0 0.00 0.79 0.79 81 1008.1
20260507011102 20 262 0.0 0.0 0.00 0.79 0.79 81 1008.0
20260507003931 20 262 0.0 0.0 0.00 0.79 0.79 79 1007.7
20260507002923 20 262 0.0 0.0 0.00 0.79 0.79 78 1007.7
20260507001919 21 262 0.0 0.0 0.00 0.79 0.79 78 1007.5
20260507000921 21 262 0.0 0.0 0.00 0.79 0.79 77 1007.5
20260506234725 21 262 0.0 0.0 0.00 0.79 0.79 76 1007.4
20260506232618 21 262 0.0 4.8 0.00 0.79 0.79 74 1007.1
20260506231615 21 240 0.0 4.8 0.00 0.79 0.79 75 1007.0
20260506230553 21 240 0.0 1.6 0.00 0.79 0.79 74 1007.0
20260506225557 21 190 0.0 6.4 0.00 0.79 0.79 74 1006.9
20260506224534 21 277 0.0 1.6 0.00 0.79 0.79 74 1006.8
20260506223554 21 222 1.6 11.3 0.00 0.79 0.79 73 1006.8
20260506222601 21 212 1.6 17.7 0.00 0.79 0.79 73 1006.8
20260506221554 22 207 6.4 17.7 0.00 0.79 0.79 72 1006.6
20260506220609 22 246 3.2 14.5 0.00 0.79 0.79 72 1006.6
20260506215548 22 192 4.8 17.7 0.00 0.79 0.79 72 1006.7
20260506214551 22 245 4.8 20.9 0.00 0.79 0.79 73 1006.7
20260506213546 22 267 6.4 20.9 0.00 0.79 0.79 73 1006.7
20260506212600 22 230 4.8 19.3 0.00 0.79 0.79 72 1006.7
20260506211528 22 271 6.4 19.3 0.00 0.79 0.79 71 1006.6
20260506210516 22 265 6.4 14.5 0.00 0.79 0.79 71 1006.6
20260506205450 22 167 6.4 19.3 0.00 0.79 0.79 71 1006.0
20260506204458 22 241 4.8 19.3 0.00 0.79 0.79 71 1006.3
20260506203447 22 213 4.8 17.7 0.00 0.79 0.79 71 1006.1
20260506202433 22 257 8.0 17.7 0.00 0.79 0.79 72 1006.2
20260506201402 22 196 6.4 16.1 0.00 0.79 0.79 71 1006.3
20260506200425 21 286 8.0 20.9 0.00 0.79 0.79 73 1006.4
20260506195437 21 124 8.0 20.9 0.00 0.79 0.79 72 1006.4
20260506194415 21 196 8.0 20.9 0.00 0.79 0.79 72 1006.4
20260506193355 21 209 9.7 27.4 0.00 0.79 0.79 73 1006.5
20260506192416 21 207 8.0 27.4 0.00 0.79 0.79 74 1006.4
20260506190312 21 259 8.0 22.5 0.00 0.79 0.79 75 1006.7
20260506185250 20 222 4.8 22.5 0.00 0.79 0.79 75 1006.8
20260506184216 20 203 4.8 22.5 0.00 0.79 0.79 76 1006.8
20260506183213 20 238 4.8 19.3 0.00 0.79 0.79 77 1006.9
20260506182224 20 197 8.0 20.9 0.00 0.79 0.79 75 1007.0
20260506180137 20 162 6.4 17.7 0.00 0.79 0.79 76 1007.3
20260506175103 20 240 6.4 24.1 0.00 0.79 0.79 78 1007.2
20260506171843 19 277 6.4 29.0 0.00 0.79 0.79 80 1007.4
20260506165658 18 182 8.0 27.4 0.00 0.79 0.79 81 1007.5
20260506164707 18 212 8.0 24.1 0.00 0.79 0.79 83 1007.5
20260506163658 18 190 8.0 24.1 0.00 0.79 0.79 85 1007.5
20260506162652 18 271 8.0 29.0 0.00 0.79 0.79 87 1007.7
20260506161632 17 229 9.7 29.0 0.00 0.79 0.79 89 1007.6
20260506160647 17 172 8.0 32.2 0.00 0.79 0.79 90 1007.8
20260506155705 17 246 9.7 37.0 0.00 0.79 0.79 90 1007.7
20260506154652 17 161 9.7 37.0 0.00 0.79 0.79 90 1007.7
20260506153641 16 243 8.0 22.5 0.10 0.79 0.79 91 1008.0
20260506152702 16 153 8.0 27.4 0.10 0.79 0.79 91 1008.1
20260506151651 16 228 8.0 27.4 0.23 0.74 0.76 91 1008.0
20260506145530 16 175 6.4 16.1 0.10 0.66 0.66 91 1008.4
20260506144815 16 177 6.4 16.1 0.10 0.61 0.64 91 1008.6
20260506142112 16 221 4.8 12.9 0.20 0.58 0.58 91 1008.8
20260506141101 16 193 4.8 17.7 0.30 0.53 0.53 90 1008.6
20260506134854 16 269 3.2 17.7 0.43 0.36 0.38 89 1008.8
20260506133903 16 189 4.8 16.1 0.48 0.30 0.33 88 1008.9
20260506132921 16 227 4.8 14.5 0.53 0.23 0.23 87 1009.0
20260506131940 17 203 4.8 14.5 0.79 0.10 0.15 86 1009.1
20260506131000 17 267 4.8 14.5 0.00 0.05 0.08 85 1009.2
20260506130021 17 172 3.2 12.9 0.00 0.05 0.05 85 1008.7
20260506123836 17 172 3.2 14.5 0.10 0.05 0.05 84 1008.3
20260506122847 17 196 4.8 17.7 0.25 0.05 0.05 83 1008.4
20260506121907 17 192 6.4 17.7 0.00 0.03 0.03 81 1008.6
20260506120932 17 180 3.2 12.9 0.00 0.00 0.00 79 1008.8
20260506115944 18 215 3.2 16.1 0.00 0.00 0.00 78 1009.0
20260506114910 18 220 3.2 16.1 0.00 0.00 0.00 76 1008.9
20260506111624 18 180 6.4 19.3 0.00 0.00 0.00 72 1008.3
20260506110602 18 176 6.4 16.1 0.00 0.00 0.00 71 1008.2
20260506105611 18 153 6.4 22.5 0.00 0.00 0.00 71 1008.1
20260506102341 19 216 6.4 22.5 0.00 0.00 0.00 68 1008.0
20260506101322 19 216 8.0 20.9 0.00 0.00 0.00 68 1008.0
20260506100308 19 247 4.8 17.7 0.00 0.00 0.00 67 1007.9
20260506095234 19 192 4.8 17.7 0.00 0.00 0.00 67 1008.0
20260506094225 19 247 6.4 16.1 0.00 0.00 0.00 67 1007.9
20260506093210 19 208 8.0 24.1 0.00 0.00 0.00 66 1007.9
20260506092219 19 189 8.0 24.1 0.00 0.00 0.00 66 1007.9
20260506091227 19 140 8.0 22.5 0.00 0.00 0.00 66 1008.1
20260506085105 20 210 11.3 24.1 0.00 0.00 0.00 65 1008.1
20260506084109 20 213 8.0 24.1 0.00 0.00 0.00 65 1008.2
20260506083119 20 162 8.0 24.1 0.00 0.00 0.00 64 1008.2
20260506080956 20 167 9.7 29.0 0.00 0.00 0.00 64 1008.3
20260506072930 20 171 8.0 24.1 0.00 0.00 0.00 62 1008.1
20260506071915 21 171 9.7 24.1 0.00 0.00 0.00 61 1008.1
20260506070853 21 234 8.0 16.1 0.00 0.00 0.00 60 1008.4
20260506061902 22 217 6.4 27.4 0.00 0.00 0.00 55 1008.6
20260506060848 22 190 8.0 27.4 0.00 0.00 0.00 55 1008.6
20260506050841 22 234 9.7 20.9 0.00 0.00 0.00 52 1009.0
20260506044828 22 172 9.7 22.5 0.00 0.00 0.00 52 1009.1
20260506042733 22 180 8.0 24.1 0.00 0.00 0.00 51 1009.1
20260506041736 22 217 11.3 22.5 0.00 0.00 0.00 51 1009.2
20260506035608 22 127 6.4 19.3 0.00 0.00 0.00 50 1009.2
20260506034607 22 229 8.0 22.5 0.00 0.00 0.00 50 1009.2
20260506033619 22 155 6.4 22.5 0.00 0.00 0.00 49 1009.1
20260506032610 22 167 6.4 19.3 0.00 0.00 0.00 49 1009.2
20260506031620 22 260 8.0 27.4 0.00 0.00 0.00 47 1009.2
20260506030612 23 173 6.4 27.4 0.00 0.00 0.00 47 1009.1
20260506024456 23 160 9.7 20.9 0.00 0.00 0.00 45 1009.1
20260506023424 23 188 6.4 20.9 0.00 0.00 0.00 44 1009.2
20260506022358 23 169 6.4 17.7 0.00 0.00 0.00 43 1009.3
20260506021324 23 208 6.4 16.1 0.00 0.00 0.00 42 1009.3